FW1946 Weather Reports


Display with metric or nautical units.
time (UTC)temp
F
wind
direction
speed
MPH
gust
MPH
rain 1hr
in
rain 24hr
in
rain mn
in
humidity
%
barometer
mb
20260831000037 75 245 1.0 10.0 0.00 0.00 0.00 40 1015.9
20260830233030 75 270 1.0 9.0 0.00 0.00 0.00 39 1016.1
20260830231533 75 265 2.0 11.0 0.00 0.00 0.00 39 1016.2
20260830230035 74 279 2.0 9.0 0.00 0.00 0.00 39 1016.4
20260830224537 74 285 2.0 11.0 0.00 0.00 0.00 39 1016.7
20260830223142 74 277 1.0 12.0 0.00 0.00 0.00 38 1016.9
20260830221531 74 281 2.0 11.0 0.00 0.00 0.00 39 1017.2
20260830220032 74 275 2.0 9.0 0.00 0.00 0.00 41 1017.4
20260830214534 73 275 2.0 11.0 0.00 0.00 0.00 41 1017.6
20260830213036 73 261 2.0 9.0 0.00 0.00 0.00 42 1017.7
20260830211535 73 269 2.0 12.0 0.00 0.00 0.00 42 1017.8
20260830210035 74 237 2.0 10.0 0.00 0.00 0.00 42 1018.0
20260830204537 74 280 2.0 9.0 0.00 0.00 0.00 42 1018.2
20260830203036 74 266 2.0 10.0 0.00 0.00 0.00 42 1018.4
20260830201531 73 282 2.0 8.0 0.00 0.00 0.00 43 1018.6
20260830193042 72 278 2.0 9.0 0.00 0.00 0.00 44 1019.1
20260830191534 71 267 1.0 8.0 0.00 0.00 0.00 46 1019.4
20260830184650 70 263 2.0 7.0 0.00 0.00 0.00 48 1019.7
20260830183036 69 277 2.0 9.0 0.00 0.00 0.00 49 1019.8
20260830181549 68 269 1.0 9.0 0.00 0.00 0.00 50 1019.9
20260830174611 66 283 1.0 9.0 0.00 0.00 0.00 54 1020.0
20260830173030 66 284 1.0 9.0 0.00 0.00 0.00 54 1020.1
20260830171534 65 282 1.0 8.0 0.00 0.00 0.00 56 1020.2
20260830170033 65 292 1.0 7.0 0.00 0.00 0.00 59 1020.3
20260830161535 61 278 1.0 11.0 0.00 0.00 0.00 70 1020.8
20260830160109 60 249 2.0 8.0 0.00 0.00 0.00 74 1021.0
20260830154540 59 292 0.0 8.0 0.00 0.00 0.00 78 1021.1
20260830154534 56 243 0.0 4.0 0.00 0.00 0.00 85 1021.1
20260830151532 52 186 0.0 4.0 0.00 0.00 0.00 87 1021.1
20260830150029 50 214 1.0 4.0 0.00 0.00 0.00 89 1021.2
20260830144534 48 157 0.0 2.0 0.00 0.00 0.00 91 1021.2
20260830143031 46 196 0.0 2.0 0.00 0.00 0.00 91 1021.1
20260830141535 47 200 0.0 2.0 0.00 0.00 0.00 91 1020.9
20260830140034 47 207 0.0 3.0 0.00 0.00 0.00 91 1020.7
20260830134534 47 211 0.0 3.0 0.00 0.00 0.00 91 1020.6
20260830133033 47 169 0.0 5.0 0.00 0.00 0.00 91 1020.6
20260830131530 47 191 0.0 3.0 0.00 0.00 0.00 91 1020.3
20260830130033 47 167 0.0 3.0 0.00 0.00 0.00 91 1020.2
20260830124533 47 184 0.0 2.0 0.00 0.00 0.00 91 1020.2
20260830123038 47 192 0.0 2.0 0.00 0.00 0.00 91 1020.2
20260830121605 47 183 0.0 2.0 0.00 0.00 0.00 91 1020.2
20260830120030 46 171 0.0 2.0 0.00 0.00 0.00 92 1020.2
20260830113036 46 202 0.0 1.0 0.00 0.00 0.00 90 1020.1
20260830104609 46 202 0.0 1.0 0.00 0.00 0.00 89 1020.0
20260830094535 47 202 0.0 0.0 0.00 0.00 0.00 85 1020.0
20260830093035 48 202 0.0 0.0 0.00 0.00 0.00 84 1020.0
20260830091536 48 202 0.0 2.0 0.00 0.00 0.00 82 1020.1
20260830090034 49 202 0.0 1.0 0.00 0.00 0.00 80 1020.1
20260830084535 53 177 1.0 4.0 0.00 0.00 0.00 76 1020.3
20260830080035 56 223 0.0 4.0 0.00 0.00 0.00 75 1020.3
20260830074609 56 238 1.0 5.0 0.00 0.00 0.00 74 1020.2
20260830073033 56 222 1.0 7.0 0.00 0.00 0.00 73 1020.2
20260830071619 57 240 0.0 7.0 0.00 0.00 0.00 71 1020.2
20260830071609 57 256 1.0 6.0 0.00 0.00 0.00 71 1020.1
20260830064534 57 208 0.0 5.0 0.00 0.00 0.00 71 1020.0
20260830063033 57 261 1.0 5.0 0.00 0.00 0.00 71 1019.9
20260830061531 57 244 0.0 4.0 0.00 0.00 0.00 72 1020.0
20260830054545 57 252 0.0 5.0 0.00 0.00 0.00 72 1020.1
20260830054537 57 275 0.0 4.0 0.00 0.00 0.00 72 1020.1
20260830051537 57 238 0.0 5.0 0.00 0.00 0.00 72 1020.0
20260830050037 57 228 0.0 2.0 0.00 0.00 0.00 71 1020.0
20260830044530 57 229 1.0 3.0 0.00 0.00 0.00 71 1019.9
20260830043032 57 245 0.0 4.0 0.00 0.00 0.00 71 1019.8
20260830040031 58 245 0.0 3.0 0.00 0.00 0.00 69 1019.4
20260830034533 58 218 0.0 5.0 0.00 0.00 0.00 70 1019.3
20260830033035 58 219 0.0 5.0 0.00 0.00 0.00 70 1019.2
20260830031544 58 205 0.0 2.0 0.00 0.00 0.00 70 1019.0
20260830031537 58 230 0.0 4.0 0.00 0.00 0.00 69 1019.0
20260830024610 60 247 0.0 1.0 0.00 0.00 0.00 67 1018.9
20260830023035 60 241 0.0 5.0 0.00 0.00 0.00 66 1018.8
20260830021616 63 263 0.0 5.0 0.00 0.00 0.00 60 1018.9
20260830020034 65 242 0.0 5.0 0.00 0.00 0.00 56 1018.7
20260830013037 67 243 1.0 8.0 0.00 0.00 0.00 54 1018.6
20260830011534 68 267 2.0 10.0 0.00 0.00 0.00 52 1018.6
20260830010034 69 242 2.0 9.0 0.00 0.00 0.00 52 1018.6
20260830004535 69 269 0.0 7.0 0.00 0.00 0.00 51 1018.5
20260830003037 68 264 0.0 4.0 0.00 0.00 0.00 54 1018.6